Location: Newark
(49.9819°N, 3.0344°E)
Time: 10:52:18
(UTC+00:00)

ISS - Pass Details

Date: 28 January 2020
Orbit: 415 x 422 km, 51.6° (Epoch: 23 February)

Event Time Altitude Azimuth Distance (km) Brightness Sun altitude
Rises 18:59:52 0° 277° (W) 2,379 1.5 -23.3°
Reaches altitude 10° 19:02:00 10° 280° (W) 1,512 0.1 -23.6°
Enters shadow 19:04:19 39° 297° (WNW) 652 -2.4 -24.0°
